Weather History for Bullhead City, AZ

Change the Weather History Date:

Sunday, October 13, 2013

  Actual Average Record
Temperature  
Mean Temperature 70 °F -  
Max Temperature 84 °F 88 °F 104 °F (1992)
Min Temperature 57 °F 65 °F 39 °F (2008)
Cooling Degree Days 6    
Growing Degree Days 20 (Base 50)    
Moisture  
Dew Point 33 °F    
Average Humidity 26    
Maximum Humidity 44    
Minimum Humidity 11    
Precipitation  
Precipitation 0.00 in - - ()
Sea Level Pressure  
Sea Level Pressure 29.87 in    
Wind  
Wind Speed 6 mph (SW)    
Max Wind Speed 21 mph    
Max Gust Speed 30 mph    
Visibility 10 miles    
Events      
Averages and records for this station are not official NWS values.
T = Trace of Precipitation, MM = Missing Value Source: NWS Daily Summary

Daily Weather History Graph

Daily Weather History Graph

Search for Another Location

Airport:

Trip Planner

Search our weather history database for the weather conditions in past years. The results will help you decide how hot, cold, wet, or windy it might be!

Date:

Astronomy

Oct. 13, 2013 Rise Set
Actual Time 6:42 AM MST 6:05 PM MST
Civil Twilight 6:17 AM MST 6:30 PM MST
Nautical Twilight 5:47 AM MST 7:00 PM MST
Astronomical Twilight 5:18 AM MST 7:29 PM MST
Moon 2:49 PM MST (10/13) 1:09 AM MST (10/13)
Length of Visible Light 12h 13m
Length of Day
11h 22m
Waxing Gibbous, 70% of the Moon is Illuminated
Oct 13
Waxing Gibbous
Oct 18
Full
Oct 26
Last Quarter
Nov 3
New
Nov 9
First Quarter

Hourly Weather History & Observations

Time (MST) Temp. Dew Point Humidity Pressure Visibility Wind Dir Wind Speed Gust Speed Precip Events Conditions
12:15 AM 62.6 °F 32.0 °F 32% 29.85 in 10.0 mi Calm Calm - N/A   Clear
12:35 AM 62.6 °F 33.8 °F 34% 29.85 in 10.0 mi Calm Calm - N/A   Clear
12:55 AM 62.6 °F 33.8 °F 34% 29.85 in 10.0 mi Calm Calm - N/A   Clear
1:15 AM 62.6 °F 33.8 °F 34% 29.85 in 10.0 mi SE 4.6 mph - N/A   Clear
1:35 AM 62.6 °F 33.8 °F 34% 29.85 in 10.0 mi Calm Calm - N/A   Clear
1:55 AM 60.8 °F 33.8 °F 36% 29.85 in 10.0 mi SE 3.5 mph - N/A   Clear
2:15 AM 62.6 °F 33.8 °F 34% 29.85 in 10.0 mi Calm Calm - N/A   Clear
2:35 AM 60.8 °F 33.8 °F 36% 29.85 in 10.0 mi Calm Calm - N/A   Clear
2:55 AM 60.8 °F 33.8 °F 36% 29.84 in 10.0 mi Calm Calm - N/A   Clear
3:15 AM 62.6 °F 32.0 °F 32% 29.84 in 10.0 mi Calm Calm - N/A   Clear
3:35 AM 60.8 °F 35.6 °F 39% 29.83 in 10.0 mi Calm Calm - N/A   Clear
3:55 AM 59.0 °F 33.8 °F 39% 29.83 in 10.0 mi Calm Calm - N/A   Clear
4:15 AM 57.2 °F 33.8 °F 41% 29.83 in 10.0 mi Calm Calm - N/A   Clear
4:35 AM 57.2 °F 33.8 °F 41% 29.84 in 10.0 mi SE 4.6 mph - N/A   Clear
4:55 AM 59.0 °F 32.0 °F 36% 29.85 in 10.0 mi Calm Calm - N/A   Clear
5:15 AM 59.0 °F 32.0 °F 36% 29.84 in 10.0 mi SE 8.1 mph - N/A   Clear
5:35 AM 60.8 °F 32.0 °F 34% 29.85 in 10.0 mi East 3.5 mph - N/A   Clear
5:55 AM 59.0 °F 32.0 °F 36% 29.86 in 10.0 mi Calm Calm - N/A   Clear
6:15 AM 59.0 °F 32.0 °F 36% 29.86 in 10.0 mi ESE 3.5 mph - N/A   Clear
6:35 AM 59.0 °F 33.8 °F 39% 29.86 in 10.0 mi Calm Calm - N/A   Clear
6:55 AM 57.2 °F 33.8 °F 41% 29.86 in 10.0 mi Calm Calm - N/A   Clear
7:15 AM 57.2 °F 35.6 °F 44% 29.87 in 10.0 mi Calm Calm - N/A   Clear
7:35 AM 59.0 °F 35.6 °F 42% 29.88 in 10.0 mi Calm Calm - N/A   Clear
7:55 AM 62.6 °F 35.6 °F 37% 29.88 in 10.0 mi Calm Calm - N/A   Clear
8:15 AM 62.6 °F 37.4 °F 39% 29.90 in 10.0 mi Calm Calm - N/A   Clear
8:35 AM 64.4 °F 37.4 °F 37% 29.90 in 10.0 mi Calm Calm - N/A   Clear
8:55 AM 66.2 °F 35.6 °F 32% 29.91 in 10.0 mi Calm Calm - N/A   Clear
9:15 AM 66.2 °F 35.6 °F 32% 29.91 in 10.0 mi Calm Calm - N/A   Clear
9:35 AM 68.0 °F 35.6 °F 30% 29.90 in 10.0 mi South 6.9 mph - N/A   Clear
9:55 AM 71.6 °F 35.6 °F 27% 29.89 in 10.0 mi SSW 12.7 mph 16.1 mph N/A   Clear
10:15 AM 73.4 °F 35.6 °F 25% 29.87 in 10.0 mi SSW 12.7 mph - N/A   Clear
10:35 AM 77.0 °F 35.6 °F 22% 29.86 in 10.0 mi South 20.7 mph 27.6 mph N/A   Clear
10:55 AM 77.0 °F 37.4 °F 24% 29.86 in 10.0 mi SSW 13.8 mph 26.5 mph N/A   Clear
11:15 AM 77.0 °F 35.6 °F 22% 29.86 in 10.0 mi SSW 18.4 mph 25.3 mph N/A   Clear
11:35 AM 78.8 °F 35.6 °F 21% 29.86 in 10.0 mi SW 15.0 mph 19.6 mph N/A   Clear
11:55 AM 78.8 °F 35.6 °F 21% 29.86 in 10.0 mi SSW 18.4 mph 25.3 mph N/A   Clear
12:15 PM 80.6 °F 35.6 °F 20% 29.85 in 10.0 mi SSW 16.1 mph 21.9 mph N/A   Clear
12:35 PM 80.6 °F 35.6 °F 20% 29.84 in 10.0 mi SSW 13.8 mph 20.7 mph N/A   Clear
12:55 PM 80.6 °F 33.8 °F 18% 29.83 in 10.0 mi South 17.3 mph 25.3 mph N/A   Clear
1:15 PM 80.6 °F 32.0 °F 17% 29.83 in 10.0 mi SSW 16.1 mph 25.3 mph N/A   Clear
1:35 PM 80.6 °F 32.0 °F 17% 29.82 in 10.0 mi SSW 12.7 mph 24.2 mph N/A   Clear
1:55 PM 82.4 °F 32.0 °F 16% 29.81 in 10.0 mi SSW 20.7 mph 29.9 mph N/A   Clear
2:15 PM 82.4 °F 32.0 °F 16% 29.81 in 10.0 mi South 13.8 mph 19.6 mph N/A   Clear
2:35 PM 82.4 °F 32.0 °F 16% 29.81 in 10.0 mi South 13.8 mph 19.6 mph N/A   Clear
2:55 PM 84.2 °F 32.0 °F 15% 29.81 in 10.0 mi SW 11.5 mph 24.2 mph N/A   Clear
3:15 PM 82.4 °F 32.0 °F 16% 29.81 in 10.0 mi SSW 11.5 mph 16.1 mph N/A   Clear
3:35 PM 82.4 °F 30.2 °F 15% 29.80 in 10.0 mi SSW 17.3 mph 23.0 mph N/A   Clear
3:55 PM 82.4 °F 30.2 °F 15% 29.80 in 10.0 mi South 16.1 mph - N/A   Clear
4:15 PM 82.4 °F 30.2 °F 15% 29.81 in 10.0 mi South 10.4 mph - N/A   Clear
4:35 PM 82.4 °F 30.2 °F 15% 29.81 in 10.0 mi SSW 10.4 mph - N/A   Clear
4:55 PM 82.4 °F 28.4 °F 14% 29.81 in 10.0 mi South 13.8 mph 21.9 mph N/A   Clear
5:15 PM 82.4 °F 28.4 °F 14% 29.82 in 10.0 mi SW 10.4 mph - N/A   Clear
5:35 PM 82.4 °F 23.0 °F 11% 29.83 in 10.0 mi West 13.8 mph 23.0 mph N/A   Clear
5:55 PM 80.6 °F 24.8 °F 13% 29.84 in 10.0 mi West 11.5 mph 18.4 mph N/A   Clear
6:15 PM 78.8 °F 24.8 °F 14% 29.85 in 10.0 mi WNW 15.0 mph 23.0 mph N/A   Clear
6:35 PM 77.0 °F 24.8 °F 14% 29.86 in 10.0 mi WNW 13.8 mph 19.6 mph N/A   Clear
6:55 PM 77.0 °F 24.8 °F 14% 29.87 in 10.0 mi WNW 11.5 mph 18.4 mph N/A   Clear
7:15 PM 77.0 °F 23.0 °F 13% 29.88 in 10.0 mi WNW 13.8 mph - N/A   Clear
7:35 PM 77.0 °F 23.0 °F 13% 29.89 in 10.0 mi WNW 9.2 mph - N/A   Clear
7:55 PM 75.2 °F 35.6 °F 24% 29.90 in 10.0 mi North 19.6 mph 27.6 mph N/A   Clear
8:15 PM 73.4 °F 35.6 °F 25% 29.90 in 10.0 mi North 16.1 mph 23.0 mph N/A   Clear
8:35 PM 73.4 °F 33.8 °F 23% 29.92 in 10.0 mi North 13.8 mph - N/A   Clear
8:55 PM 73.4 °F 35.6 °F 25% 29.93 in 10.0 mi North 13.8 mph 18.4 mph N/A   Clear
9:15 PM 73.4 °F 33.8 °F 23% 29.93 in 10.0 mi North 17.3 mph 23.0 mph N/A   Clear
9:35 PM 73.4 °F 32.0 °F 22% 29.94 in 10.0 mi North 16.1 mph - N/A   Clear
9:55 PM 71.6 °F 33.8 °F 25% 29.95 in 10.0 mi North 15.0 mph - N/A   Clear
10:15 PM 71.6 °F 33.8 °F 25% 29.96 in 10.0 mi North 11.5 mph - N/A   Clear
10:35 PM 69.8 °F 33.8 °F 27% 29.96 in 10.0 mi NNE 9.2 mph - N/A   Clear
10:55 PM 71.6 °F 33.8 °F 25% 29.96 in 10.0 mi North 16.1 mph - N/A   Clear
11:15 PM 71.6 °F 33.8 °F 25% 29.97 in 10.0 mi North 15.0 mph - N/A   Clear
11:35 PM 69.8 °F 35.6 °F 28% 29.97 in 10.0 mi North 15.0 mph - N/A   Clear
11:55 PM 69.8 °F 35.6 °F 28% 29.98 in 10.0 mi North 13.8 mph - N/A   Clear